Regional Weather Roundup
Issued by NWS Grand Forks, ND

Home | Current Version | Previous Version | Graphics & Text | Print | Product List | Glossary On
Versions: 1 2 3 4 5 6 7 8 9 10 11 12 13 14 15 16 17 18 19 20 21 22 23 24 25 26 27 28 29 30 31 32 33 34 35 36 37 38 39 40 41 42 43 44 45 46 47 48 49 50
000
ASUS43 KFGF 061810
RWRFGF
PRAIRIE TO PINES  WEATHER ROUNDUP
NATIONAL WEATHER SERVICE EASTERN NORTH DAKOTA/GRAND FORKS ND
1200 PM CST SAT FEB 06 2016

 **SATELLITE DATA USED TO AUGMENT SKY COVER AT AUTOMATED STATIONS**
 *****  WEATHER ACROSS EASTERN NORTH DAKOTA  *****

CITY           SKY/WX    TMP DP  RH WIND       PRES   REMARKS
GRAND FORKS    CLOUDY    33  26  75 S15       29.73F WCI  23
6HR MIN TEMP:  20; 6HR MAX TEMP:  33;

GRAND FRKS AFB CLOUDY    34  27  75 S12       29.71F
GRAND FRKS NWS   N/A     32 N/A N/A S9          N/A  WCI  24
DEVILS LAKE    LGT RAIN  37  29  72 SW14      29.67F
6HR MIN TEMP:  28; 6HR MAX TEMP:  37; 6HR PCP: TRACE;

FARGO          MOSUNNY   35  27  72 S15       29.79F
WAHPETON ARPT  PTCLDY    34  28  80 S9        29.84F
$$

 ***** WEATHER ACROSS CENTRAL AND WESTERN NORTH DAKOTA  *****

CITY           SKY/WX    TMP DP  RH WIND       PRES   REMARKS
BISMARCK       CLOUDY    47  27  45 SW6       29.77F
6HR MIN TEMP:  31; 6HR MAX TEMP:  47;

MINOT          CLOUDY    48  26  42 SW20G28   29.63F
6HR MIN TEMP:  36; 6HR MAX TEMP:  48;

JAMESTOWN      PTSUNNY   41  26  55 W20       29.73F
6HR MIN TEMP:  30; 6HR MAX TEMP:  41;

MINOT AFB      CLOUDY    47  29  48 W20G29    29.62F
GARRISON         N/A     43  26  51 W18       29.69F
WILLISTON      PTSUNNY   45  28  51 SW12G17   29.68F
6HR MIN TEMP:  32; 6HR MAX TEMP:  45;

DICKINSON      CLOUDY    46  22  38 W21       29.75F
6HR MIN TEMP:  33; 6HR MAX TEMP:  46;

HETTINGER      CLOUDY    45  20  36 W14       29.84F
6HR MIN TEMP:  30; 6HR MAX TEMP:  45;

$$

 *****  OTHER AIRPORT OBSERVATIONS IN OUR AREA  *****

CITY           SKY/WX    TMP DP  RH WIND       PRES   REMARKS
WALHALLA       FAIR      32  28  86 S9        29.66F WCI  24
GRAFTON AIRPOR FAIR      32  28  86 S10       29.72F WCI  24
VALLEY CITY AR FAIR      41  30  65 SW15      29.76F
CANDO          NOT AVBL
CAVALIER APRT  FAIR      27  25  93 S12       29.69F WCI  16
GWINNER          N/A     36  32  87 SW20      29.80F
SHEYENNE NWR     N/A     37  27  67 SW14      29.95S
ROLLA          MOCLDY    32  28  86 S8        29.62F WCI  25
 ***** THE ABOVE OBSERVATIONS ARE NON NWS ARE NOT QUALITY
       CONTROLLED AND MAY MIS-REPORT RAIN FOR SNOW...
$$

  *****  WEATHER ACROSS NORTHERN MINNESOTA  *****

CITY           SKY/WX    TMP DP  RH WIND       PRES   REMARKS
FLAG ISLAND    CLOUDY    25  19  80 E6        29.77F WCI  18
WARROAD        CLOUDY    27  21  80 E5        29.76F WCI  21
ROSEAU         MOSUNNY   30  23  74 S12       29.75F WCI  21
HALLOCK        CLOUDY    28  25  86 S15       29.71F WCI  17
THF RVR FALLS  CLOUDY    30  25  80 S9        29.76F WCI  22
6HR MIN TEMP:  19; 6HR MAX TEMP:  30;

BAUDETTE       CLOUDY    27  19  72 SE10      29.78F WCI  17
6HR MIN TEMP:  18; 6HR MAX TEMP:  27;

WASKISH        CLOUDY    34  23  64 SE7       29.80F
CROOKSTON      CLOUDY    30  27  86 S15       29.76F WCI  19
STEPHEN NDAWN    N/A     28  25  86 S13         N/A  WCI  18
GREENBUSH NDAW   N/A     28  25  86 S10         N/A  WCI  19
$$
  *****  WEATHER ACROSS CENTRAL AND WEST MINNESOTA  *****

CITY           SKY/WX    TMP DP  RH WIND       PRES   REMARKS
FOSSTON        CLOUDY    30  25  80 S14       29.77F WCI  20
BEMIDJI        MOSUNNY   31  24  73 S7        29.79F WCI  25
PARK RAPIDS    CLOUDY    33  24  69 S9        29.81F
6HR MIN TEMP:  21; 6HR MAX TEMP:  33;

ELBOW LAKE     FAIR      33  28  81 S10       29.86F HAZE    WCI  24
WADENA         MOSUNNY   34  25  69 S8        29.84F
DETROIT LAKES  CLOUDY    34  27  75 S12G17    29.81F
MOORHEAD       CLOUDY    32  27  80 S9        29.81F WCI  24
FERGUS FALLS   CLOUDY    34  27  75 S13       29.87F WCI  25
MORRIS MN      CLOUDY    36  28  75 S15       29.86F
STAPLES        CLOUDY    34  25  69 S12       29.86F
$$
  *****  WEATHER ELSEWHERE ACROSS MINNESOTA  *****

CITY           SKY/WX    TMP DP  RH WIND       PRES   REMARKS
DULUTH         CLOUDY    28  21  75 S10       29.91F WCI  19
6HR MIN TEMP:  18; 6HR MAX TEMP:  28;

INTRNTL FALLS  CLOUDY    26  19  74 SE9       29.83F WCI  17
6HR MIN TEMP:  17; 6HR MAX TEMP:  26;

ELY            CLOUDY    27  18  69 S8        29.88F WCI  18
CLOQUET        CLOUDY    28  21  74 S10       29.91F WCI  19
WHEATON        CLOUDY    37  30  75 SW10      29.87F
BRAINERD       CLOUDY    31  23  72 S15       29.89F WCI  20
6HR MIN TEMP:  20; 6HR MAX TEMP:  31;

HIBBING        CLOUDY    27  20  75 SE10      29.87F WCI  17
6HR MIN TEMP:   7; 6HR MAX TEMP:  27;

ALEXANDRIA     CLOUDY    35  24  64 S16       29.88F
6HR MIN TEMP:  22; 6HR MAX TEMP:  35; 6HR PCP: TRACE;

SAINT CLOUD    CLOUDY    30  23  75 S13       29.95F WCI  20
6HR MIN TEMP:  22; 6HR MAX TEMP:  30;

MINNEAPOLIS    CLOUDY    33  25  72 S14       30.05F WCI  23
6HR MIN TEMP:  26; 6HR MAX TEMP:  33;

$$

  *****  WEATHER ACROSS SOUTH DAKOTA  *****

CITY           SKY/WX    TMP DP  RH WIND       PRES   REMARKS
SIOUX FALLS    CLOUDY    29  22  75 SW10      30.03F WCI  20
6HR MIN TEMP:  17; 6HR MAX TEMP:  29;

BROOKINGS      MOSUNNY   35  25  66 S9        29.96F
WATERTOWN      CLOUDY    33  24  69 S13       29.90F WCI  24
6HR MIN TEMP:  19; 6HR MAX TEMP:  33;

HURON          MOSUNNY   35  27  72 S13       29.94F
6HR MIN TEMP:  23; 6HR MAX TEMP:  35;

SISSETON         N/A     38  25  59 SW22      29.82F
ABERDEEN       MOSUNNY   43  28  55 SW18      29.87F
6HR MIN TEMP:  23; 6HR MAX TEMP:  43;

MITCHELL       CLOUDY    35  27  72 S12       29.99F
PIERRE         CLOUDY    43  24  47 SW13      29.91F
6HR MIN TEMP:  29; 6HR MAX TEMP:  43;

MOBRIDGE       MOSUNNY   47  27  45 SW10      29.82F
RAPID CITY     CLOUDY    42  29  59 SE6       29.92F
6HR MIN TEMP:  22; 6HR MAX TEMP:  42;

$$

  *****  SOME WEATHER IN NEARBY STATES *****

CITY           SKY/WX    TMP DP  RH WIND       PRES   REMARKS
GLASGOW MT     MOSUNNY   42  28  57 W23G35    29.74R
6HR MIN TEMP:  37; 6HR MAX TEMP:  43; 6HR PCP: TRACE;

GREAT FALLS MT SUNNY     41  20  43 W41G55    29.94R
6HR MIN TEMP:  33; 6HR MAX TEMP:  43; 6HR PCP:  0.02;

CHEYENNE WY    CLOUDY    36  18  48 NW15G25   30.13R
6HR MIN TEMP:  29; 6HR MAX TEMP:  37;

SCOTTSBLUFF NE CLOUDY    39  23  52 NW22G29   30.12F
6HR MIN TEMP:  19; 6HR MAX TEMP:  40;

OMAHA NE       SUNNY     34  27  75 SW13      30.21F WCI  25
6HR MIN TEMP:  20; 6HR MAX TEMP:  34;

DES MOINES IA  CLOUDY    32  27  81 SW8       30.21F HAZE    WCI  25
6HR MIN TEMP:  28; 6HR MAX TEMP:  32;

DAVENPORT IA   SUNNY     37  26  64 W10       30.22F
6HR MIN TEMP:  26; 6HR MAX TEMP:  37;

CHICAGO IL     PTSUNNY   34  26  72 SW15      30.21F WCI  24
6HR MIN TEMP:  24; 6HR MAX TEMP:  35;

EAU CLAIRE WI  SUNNY     29  21  72 S13       30.08F WCI  19
6HR MIN TEMP:  25; 6HR MAX TEMP:  29;

LA CROSSE WI   SUNNY     31  23  72 S12       30.15F WCI  22
6HR MIN TEMP:  28; 6HR MAX TEMP:  31;

$$

  *****  SOME NATIONAL WEATHER *****

CITY           SKY/WX    TMP DP  RH WIND       PRES   REMARKS
LA GUARDIA NY  CLOUDY    39  20  46 SW9       30.35F
6HR MIN TEMP:  32; 6HR MAX TEMP:  40;

RALEIGH NC     PTSUNNY   46  18  32 CALM      30.38F
6HR MIN TEMP:  27; 6HR MAX TEMP:  46;

ATLANTA GA     PTSUNNY   48  18  30 N6        30.32F
6HR MIN TEMP:  31; 6HR MAX TEMP:  48;

NEW ORLEANS LA CLOUDY    56  25  30 NE12      30.32F
6HR MIN TEMP:  37; 6HR MAX TEMP:  56;

OKLAHOMA CITY  MOSUNNY   46  29  51 NW6       30.39F
6HR MIN TEMP:  34; 6HR MAX TEMP:  46;

ALBUQUERQUE NM SUNNY     39  12  33 N7        30.49F
6HR MIN TEMP:  22; 6HR MAX TEMP:  39;

SALT LAKE CITY MOSUNNY   30  20  66 S6        30.55R WCI  24
6HR MIN TEMP:  22; 6HR MAX TEMP:  32;

LOS ANGELES CA SUNNY     69  25  19 VRB6      30.28S
6HR MIN TEMP:  51; 6HR C1F1C2F2C3F3C4F4C5F5C6F6C7F7C8F8C9F9CaFaCbFbCcFcCd!


USA.gov is the U.S. government's official web portal to all federal, state and local government web resources and services.